Location: Newark
(45.5000°N, 11.4167°E)
Time: 07:35:02
(UTC+00:00)

Vanguard 3 - Pass Details

Date: 23 August 2019
Orbit: 508 x 3262 km, 33.3° (Epoch: 17 October)

Event Time Altitude Azimuth Distance (km) Brightness Sun altitude
Rises 19:42:50 0° 253° (WSW) 3,140 10.7 -15.6°
Reaches altitude 10° 19:47:01 10° 219° (SW) 1,885 9.1 -16.2°
Maximum altitude 19:48:23 11° 200° (SSW) 1,721 8.7 -16.4°
Enters shadow 19:49:04 11° 189° (S) 1,716 8.6 -16.5°
Drops below altitude 10° 19:49:41 10° 179° (S) 1,757 - -16.5°
Sets 19:53:08 0° 143° (SE) 2,596 - -17.0°
